| time (UTC) | temp C | wind direction | speed KPH | gust KPH | rain 1hr cm | rain 24hr cm | rain mn cm | humidity % | barometer mb |
| 20260508001526 | 12 | 124 | 1.6 | 3.2 | 0.00 | 0.38 | 0.08 | 81 | 1010.6 |
| 20260508000025 | 13 | 116 | 1.6 | 11.3 | 0.00 | 0.38 | 0.08 | 76 | 1010.3 |
| 20260507234527 | 14 | 263 | 1.6 | 3.2 | 0.00 | 0.38 | 0.08 | 80 | 1010.2 |
| 20260507233033 | 13 | 107 | 3.2 | 8.0 | 0.00 | 0.38 | 0.08 | 79 | 1010.1 |
| 20260507231527 | 14 | 75 | 1.6 | 6.4 | 0.00 | 0.38 | 0.08 | 78 | 1009.8 |
| 20260507230026 | 15 | 89 | 3.2 | 8.0 | 0.00 | 0.38 | 0.08 | 76 | 1009.6 |
| 20260507224532 | 15 | 89 | 3.2 | 8.0 | 0.00 | 0.38 | 0.08 | 75 | 1009.4 |
| 20260507223027 | 15 | 77 | 3.2 | 8.0 | 0.00 | 0.38 | 0.08 | 75 | 1009.3 |
| 20260507221521 | 15 | 103 | 1.6 | 11.3 | 0.00 | 0.38 | 0.08 | 76 | 1009.1 |
| 20260507220003 | 15 | 139 | 1.6 | 11.3 | 0.00 | 0.38 | 0.08 | 75 | 1009.0 |
| 20260507214507 | 16 | 90 | 3.2 | 8.0 | 0.00 | 0.38 | 0.08 | 73 | 1008.9 |
| 20260507213012 | 16 | 179 | 1.6 | 9.7 | 0.00 | 0.38 | 0.08 | 73 | 1008.9 |
| 20260507211504 | 16 | 68 | 1.6 | 12.9 | 0.00 | 0.38 | 0.08 | 72 | 1008.9 |
| 20260507210005 | 16 | 101 | 1.6 | 9.7 | 0.00 | 0.38 | 0.08 | 74 | 1008.8 |
| 20260507204504 | 16 | 112 | 6.4 | 14.5 | 0.00 | 0.38 | 0.08 | 71 | 1008.8 |
| 20260507203010 | 17 | 332 | 3.2 | 14.5 | 0.00 | 0.38 | 0.08 | 69 | 1009.0 |
| 20260507201512 | 16 | 91 | 3.2 | 9.7 | 0.00 | 0.38 | 0.08 | 69 | 1009.1 |
| 20260507200017 | 17 | 89 | 3.2 | 11.3 | 0.00 | 0.38 | 0.08 | 72 | 1009.2 |
| 20260507194504 | 15 | 56 | 4.8 | 11.3 | 0.00 | 0.38 | 0.08 | 74 | 1009.3 |
| 20260507193007 | 15 | 57 | 3.2 | 8.0 | 0.00 | 0.38 | 0.08 | 76 | 1009.6 |
| 20260507191510 | 15 | 129 | 4.8 | 8.0 | 0.00 | 0.38 | 0.08 | 74 | 1009.9 |
| 20260507190013 | 15 | 229 | 3.2 | 9.7 | 0.00 | 0.38 | 0.08 | 74 | 1009.9 |
| 20260507184518 | 14 | 103 | 3.2 | 11.3 | 0.00 | 0.38 | 0.08 | 76 | 1010.1 |
| 20260507183010 | 14 | 73 | 3.2 | 11.3 | 0.00 | 0.38 | 0.08 | 79 | 1010.3 |
| 20260507181507 | 14 | 103 | 4.8 | 9.7 | 0.00 | 0.38 | 0.08 | 79 | 1010.4 |
| 20260507180021 | 13 | 72 | 4.8 | 9.7 | 0.00 | 0.38 | 0.08 | 79 | 1010.7 |
| 20260507174520 | 13 | 65 | 4.8 | 9.7 | 0.00 | 0.38 | 0.08 | 80 | 1010.8 |
| 20260507173030 | 12 | 72 | 3.2 | 8.0 | 0.05 | 0.38 | 0.08 | 84 | 1011.0 |
| 20260507171508 | 12 | 71 | 3.2 | 6.4 | 0.05 | 0.38 | 0.08 | 83 | 1011.4 |
| 20260507170008 | 11 | 112 | 1.6 | 6.4 | 0.05 | 0.38 | 0.08 | 83 | 1011.5 |
| 20260507164513 | 12 | 63 | 3.2 | 9.7 | 0.05 | 0.38 | 0.08 | 84 | 1011.7 |
| 20260507163021 | 12 | 75 | 3.2 | 8.0 | 0.00 | 0.33 | 0.03 | 82 | 1012.0 |
| 20260507161523 | 11 | 151 | 3.2 | 9.7 | 0.00 | 0.33 | 0.03 | 84 | 1011.9 |
| 20260507160027 | 11 | 89 | 4.8 | 9.7 | 0.00 | 0.33 | 0.03 | 85 | 1012.2 |
| 20260507154512 | 11 | 99 | 1.6 | 3.2 | 0.00 | 0.33 | 0.03 | 85 | 1012.4 |
| 20260507153013 | 11 | 94 | 1.6 | 4.8 | 0.00 | 0.33 | 0.03 | 85 | 1012.7 |
| 20260507151522 | 11 | 51 | 0.0 | 8.0 | 0.00 | 0.33 | 0.03 | 84 | 1012.7 |
| 20260507150027 | 11 | 304 | 3.2 | 9.7 | 0.00 | 0.33 | 0.03 | 82 | 1012.4 |
| 20260507144532 | 11 | 309 | 1.6 | 3.2 | 0.00 | 0.33 | 0.03 | 83 | 1012.5 |
| 20260507143013 | 11 | 53 | 1.6 | 8.0 | 0.00 | 0.33 | 0.03 | 82 | 1012.7 |
| 20260507141518 | 11 | 70 | 1.6 | 4.8 | 0.00 | 0.33 | 0.03 | 83 | 1013.1 |
| 20260507140029 | 11 | 342 | 1.6 | 3.2 | 0.00 | 0.33 | 0.03 | 82 | 1013.0 |
| 20260507134527 | 11 | 304 | 3.2 | 9.7 | 0.00 | 0.33 | 0.03 | 82 | 1013.1 |
| 20260507133027 | 11 | 299 | 1.6 | 9.7 | 0.00 | 0.33 | 0.03 | 82 | 1013.2 |
| 20260507131516 | 11 | 300 | 4.8 | 8.0 | 0.00 | 0.33 | 0.03 | 82 | 1013.2 |
| 20260507130018 | 11 | 263 | 6.4 | 11.3 | 0.00 | 0.33 | 0.03 | 84 | 1013.2 |
| 20260507124504 | 11 | 279 | 1.6 | 3.2 | 0.00 | 0.33 | 0.03 | 84 | 1013.2 |
| 20260507123011 | 11 | 278 | 0.0 | 0.0 | 0.00 | 0.36 | 0.03 | 85 | 1013.0 |
| 20260507121512 | 11 | 287 | 0.0 | 0.0 | 0.00 | 0.41 | 0.03 | 85 | 1013.2 |
| 20260507120017 | 11 | 78 | 0.0 | 0.0 | 0.00 | 0.41 | 0.03 | 86 | 1012.9 |
| 20260507114518 | 11 | 78 | 0.0 | 0.0 | 0.00 | 0.41 | 0.03 | 86 | 1012.9 |
| 20260507113009 | 10 | 302 | 0.0 | 1.6 | 0.00 | 0.43 | 0.03 | 85 | 1012.8 |
| 20260507111509 | 10 | 302 | 1.6 | 4.8 | 0.00 | 0.43 | 0.03 | 85 | 1012.5 |
| 20260507110011 | 10 | 102 | 1.6 | 3.2 | 0.00 | 0.43 | 0.03 | 85 | 1012.5 |
| 20260507104517 | 10 | 308 | 0.0 | 0.0 | 0.00 | 0.43 | 0.03 | 83 | 1012.3 |
| 20260507103022 | 10 | 304 | 1.6 | 3.2 | 0.00 | 0.43 | 0.03 | 84 | 1012.2 |
| 20260507101513 | 11 | 309 | 1.6 | 3.2 | 0.00 | 0.43 | 0.03 | 85 | 1012.0 |
| 20260507100008 | 11 | 290 | 3.2 | 8.0 | 0.00 | 0.43 | 0.03 | 85 | 1012.1 |
| 20260507094513 | 11 | 320 | 3.2 | 9.7 | 0.00 | 0.43 | 0.03 | 85 | 1012.0 |
| 20260507093019 | 11 | 338 | 1.6 | 8.0 | 0.00 | 0.43 | 0.03 | 84 | 1012.1 |
| 20260507091531 | 11 | 313 | 1.6 | 4.8 | 0.00 | 0.43 | 0.03 | 85 | 1011.8 |
| 20260507090035 | 11 | 309 | 3.2 | 11.3 | 0.00 | 0.43 | 0.03 | 85 | 1011.8 |
| 20260507084510 | 11 | 314 | 1.6 | 8.0 | 0.03 | 0.43 | 0.03 | 84 | 1011.8 |
| 20260507083016 | 11 | 303 | 1.6 | 4.8 | 0.03 | 0.43 | 0.03 | 83 | 1011.6 |
| 20260507081522 | 11 | 310 | 1.6 | 8.0 | 0.03 | 0.43 | 0.03 | 83 | 1011.5 |
| 20260507080026 | 12 | 304 | 1.6 | 12.9 | 0.03 | 0.43 | 0.03 | 82 | 1011.6 |
| 20260507074526 | 12 | 316 | 1.6 | 6.4 | 0.00 | 0.41 | 0.00 | 81 | 1011.7 |
| 20260507073012 | 12 | 309 | 3.2 | 9.7 | 0.00 | 0.41 | 0.00 | 80 | 1011.5 |
| 20260507071518 | 12 | 315 | 3.2 | 8.0 | 0.00 | 0.41 | 0.00 | 79 | 1011.3 |
| 20260507070029 | 12 | 297 | 1.6 | 4.8 | 0.00 | 0.41 | 0.00 | 78 | 1011.1 |
| 20260507064527 | 13 | 287 | 1.6 | 11.3 | 0.00 | 0.41 | 0.00 | 79 | 1011.0 |
| 20260507063028 | 13 | 321 | 1.6 | 12.9 | 0.00 | 0.41 | 0.00 | 77 | 1011.1 |
| 20260507061512 | 14 | 266 | 1.6 | 3.2 | 0.00 | 0.41 | 0.00 | 74 | 1011.2 |
| 20260507060019 | 14 | 332 | 3.2 | 11.3 | 0.00 | 0.41 | 0.00 | 75 | 1011.1 |
| 20260507054530 | 15 | 74 | 1.6 | 3.2 | 0.00 | 0.41 | 0.00 | 71 | 1011.2 |
| 20260507053026 | 15 | 269 | 3.2 | 3.2 | 0.00 | 0.41 | 0.00 | 71 | 1011.5 |
| 20260507051529 | 15 | 269 | 0.0 | 3.2 | 0.00 | 0.41 | 0.00 | 73 | 1011.1 |
| 20260507050033 | 15 | 252 | 3.2 | 3.2 | 0.00 | 0.41 | 0.00 | 74 | 1010.8 |
| 20260507044522 | 16 | 128 | 0.0 | 9.7 | 0.03 | 0.41 | 0.00 | 77 | 1010.3 |
| 20260507043025 | 16 | 58 | 8.0 | 17.7 | 0.28 | 0.41 | 0.00 | 79 | 1009.9 |
| 20260507041527 | 16 | 321 | 0.0 | 0.0 | 0.28 | 0.41 | 0.00 | 82 | 1010.8 |
| 20260507040015 | 16 | 305 | 3.2 | 4.8 | 0.28 | 0.41 | 0.00 | 83 | 1011.1 |
| 20260507034503 | 17 | 243 | 4.8 | 9.7 | 0.25 | 0.38 | 0.38 | 84 | 1011.4 |
| 20260507033003 | 17 | 212 | 0.0 | 3.2 | 0.00 | 0.13 | 0.13 | 83 | 1011.3 |
| 20260507031510 | 17 | 238 | 0.0 | 6.4 | 0.03 | 0.13 | 0.13 | 82 | 1011.1 |
| 20260507030010 | 18 | 204 | 1.6 | 4.8 | 0.03 | 0.13 | 0.13 | 82 | 1011.0 |
| 20260507024516 | 18 | 224 | 1.6 | 6.4 | 0.03 | 0.13 | 0.13 | 83 | 1010.8 |
| 20260507023003 | 18 | 197 | 3.2 | 9.7 | 0.03 | 0.13 | 0.13 | 82 | 1010.8 |
| 20260507021506 | 18 | 207 | 0.0 | 3.2 | 0.00 | 0.10 | 0.10 | 81 | 1010.4 |
| 20260507020006 | 19 | 210 | 1.6 | 4.8 | 0.00 | 0.10 | 0.10 | 81 | 1010.6 |
| 20260507014517 | 19 | 98 | 0.0 | 0.0 | 0.00 | 0.10 | 0.10 | 79 | 1010.1 |
| 20260507013037 | 19 | 98 | 0.0 | 0.0 | 0.00 | 0.10 | 0.10 | 78 | 1009.9 |
| 20260507011522 | 20 | 207 | 0.0 | 0.0 | 0.00 | 0.10 | 0.10 | 77 | 1010.0 |
| 20260507010010 | 20 | 207 | 0.0 | 4.8 | 0.00 | 0.10 | 0.10 | 76 | 1010.4 |
| 20260507004507 | 20 | 211 | 3.2 | 6.4 | 0.00 | 0.10 | 0.10 | 76 | 1010.6 |
| 20260507003012 | 20 | 165 | 3.2 | 6.4 | 0.00 | 0.10 | 0.10 | 76 | 1010.4 |